Location: Clarion
(42.7316°N, 93.7330°W)
Time: 08:25:00
(UTC+00:00)

Cosmos 2082 Rocket - Pass Details

Date: 22 April 2026
Orbit: 831 x 853 km, 71.0° (Epoch: 17 May)

Event Time Altitude Azimuth Distance (km) Brightness Sun altitude
Exits shadow 07:46:47 47° 326° (NNW) 1,121 2.9 -31.0°
Drops below altitude 10° 07:51:33 10° 15° (NNE) 2,491 5.5 -30.6°
Sets 07:54:06 0° 21° (NNE) 3,430 6.5 -30.4°
